contact:dominique.lefevre@mio.osupytheas.fr, maurice.libes@osupytheas.fr, didier.mallarino@osupytheas.fr
Project:EMSO http://www.emso-fr.org/EMSO-France
Depth: 2436.0 m
Title:EMSO Ligure Ouest : Data MII capteur MICROCAT
DateTime_Computer,Latitude,Longitude,Temperature,Conductivity,Pressure,DateTime_Instrument
DateTime_Computer,Latitude,Longitude,degC,S m-1,dbar,DateTime_Instrument
2020-11-15T00:00:49Z,42.805,6.029,13.2993,4.59993,2470.063,2020-11-15T02:01:46Z
2020-11-15T00:03:52Z,42.805,6.029,13.2990,4.59994,2470.077,2020-11-15T02:04:49Z
2020-11-15T00:06:55Z,42.805,6.029,13.2993,4.59989,2470.04,2020-11-15T02:07:52Z
2020-11-15T00:09:58Z,42.805,6.029,13.2986,4.59989,2470.077,2020-11-15T02:10:55Z
2020-11-15T00:13:02Z,42.805,6.029,13.2990,4.59997,2470.077,2020-11-15T02:13:58Z
2020-11-15T00:16:05Z,42.805,6.029,13.2989,4.59991,2470.063,2020-11-15T02:17:01Z
2020-11-15T00:19:08Z,42.805,6.029,13.2991,4.59990,2470.077,2020-11-15T02:20:04Z
2020-11-15T00:22:11Z,42.805,6.029,13.2994,4.59990,2470.063,2020-11-15T02:23:07Z
2020-11-15T00:25:14Z,42.805,6.029,13.2986,4.59994,2470.063,2020-11-15T02:26:11Z
2020-11-15T00:28:17Z,42.805,6.029,13.2988,4.59983,2470.03,2020-11-15T02:29:14Z
2020-11-15T00:31:20Z,42.805,6.029,13.2989,4.59992,2470.077,2020-11-15T02:32:17Z
2020-11-15T00:34:23Z,42.805,6.029,13.2991,4.59988,2470.063,2020-11-15T02:35:20Z
2020-11-15T00:37:27Z,42.805,6.029,13.2988,4.59991,2470.03,2020-11-15T02:38:23Z
2020-11-15T00:40:30Z,42.805,6.029,13.2989,4.59992,2470.04,2020-11-15T02:41:26Z
2020-11-15T00:43:33Z,42.805,6.029,13.2992,4.59993,2470.04,2020-11-15T02:44:29Z
2020-11-15T00:46:36Z,42.805,6.029,13.2989,4.59994,2470.017,2020-11-15T02:47:32Z
2020-11-15T00:49:39Z,42.805,6.029,13.2982,4.59993,2470.053,2020-11-15T02:50:36Z
2020-11-15T00:52:42Z,42.805,6.029,13.2993,4.59994,2470.077,2020-11-15T02:53:39Z
2020-11-15T00:55:45Z,42.805,6.029,13.2988,4.59996,2470.063,2020-11-15T02:56:42Z
2020-11-15T00:58:48Z,42.805,6.029,13.2986,4.59994,2469.993,2020-11-15T02:59:45Z
2020-11-15T01:01:52Z,42.805,6.029,13.2989,4.59988,2470.017,2020-11-15T03:02:48Z
2020-11-15T01:04:55Z,42.805,6.029,13.2991,4.59993,2470.063,2020-11-15T03:05:51Z
2020-11-15T01:07:58Z,42.805,6.029,13.2993,4.59992,2470.053,2020-11-15T03:08:54Z
2020-11-15T01:11:01Z,42.805,6.029,13.2993,4.59990,2470.053,2020-11-15T03:11:57Z
2020-11-15T01:14:04Z,42.805,6.029,13.2996,4.59988,2470.017,2020-11-15T03:15:01Z
2020-11-15T01:17:07Z,42.805,6.029,13.2996,4.59988,2470.017,2020-11-15T03:18:04Z
2020-11-15T01:20:10Z,42.805,6.029,13.2997,4.59994,2470.077,2020-11-15T03:21:07Z
2020-11-15T01:23:13Z,42.805,6.029,13.2992,4.59992,2470.04,2020-11-15T03:24:10Z
2020-11-15T01:26:17Z,42.805,6.029,13.3000,4.59999,2470.04,2020-11-15T03:27:13Z
2020-11-15T01:29:20Z,42.805,6.029,13.2991,4.59998,2470.017,2020-11-15T03:30:16Z
2020-11-15T01:32:23Z,42.805,6.029,13.2994,4.59997,2470.053,2020-11-15T03:33:19Z
2020-11-15T01:35:26Z,42.805,6.029,13.2992,4.59992,2470.053,2020-11-15T03:36:22Z
2020-11-15T01:38:29Z,42.805,6.029,13.2992,4.59996,2470.053,2020-11-15T03:39:26Z
2020-11-15T01:41:32Z,42.805,6.029,13.2991,4.59993,2470.063,2020-11-15T03:42:29Z
2020-11-15T01:44:35Z,42.805,6.029,13.2998,4.59993,2470.017,2020-11-15T03:45:32Z
2020-11-15T01:47:38Z,42.805,6.029,13.2993,4.59991,2470.077,2020-11-15T03:48:35Z
2020-11-15T01:50:41Z,42.805,6.029,13.2986,4.59996,2470.063,2020-11-15T03:51:38Z
2020-11-15T01:53:45Z,42.805,6.029,13.2993,4.59990,2470.077,2020-11-15T03:54:41Z
2020-11-15T01:56:48Z,42.805,6.029,13.2986,4.59992,2470.063,2020-11-15T03:57:44Z
2020-11-15T01:59:51Z,42.805,6.029,13.2985,4.60001,2470.04,2020-11-15T04:00:47Z
2020-11-15T02:02:54Z,42.805,6.029,13.2993,4.59991,2470.063,2020-11-15T04:03:50Z
2020-11-15T02:05:57Z,42.805,6.029,13.2994,4.59993,2470.053,2020-11-15T04:06:54Z
2020-11-15T02:09:00Z,42.805,6.029,13.2984,4.59990,2470.077,2020-11-15T04:09:57Z
2020-11-15T02:12:03Z,42.805,6.029,13.2994,4.59996,2470.077,2020-11-15T04:13:00Z
2020-11-15T02:15:06Z,42.805,6.029,13.2990,4.59997,2470.04,2020-11-15T04:16:03Z
2020-11-15T02:18:10Z,42.805,6.029,13.2992,4.59992,2470.11,2020-11-15T04:19:06Z
2020-11-15T02:21:13Z,42.805,6.029,13.2992,4.59997,2470.053,2020-11-15T04:22:09Z
2020-11-15T02:24:16Z,42.805,6.029,13.2991,4.59996,2470.1,2020-11-15T04:25:12Z
2020-11-15T02:27:19Z,42.805,6.029,13.2990,4.59998,2470.04,2020-11-15T04:28:15Z
2020-11-15T02:30:22Z,42.805,6.029,13.2996,4.59996,2470.087,2020-11-15T04:31:19Z
2020-11-15T02:33:25Z,42.805,6.029,13.2994,4.60003,2470.077,2020-11-15T04:34:22Z
2020-11-15T02:36:28Z,42.805,6.029,13.3000,4.59993,2470.063,2020-11-15T04:37:25Z
2020-11-15T02:39:31Z,42.805,6.029,13.2991,4.59997,2470.063,2020-11-15T04:40:28Z
2020-11-15T02:42:35Z,42.805,6.029,13.2996,4.59994,2470.053,2020-11-15T04:43:31Z
2020-11-15T02:45:38Z,42.805,6.029,13.2994,4.59995,2470.087,2020-11-15T04:46:34Z
2020-11-15T02:48:41Z,42.805,6.029,13.2999,4.59994,2470.063,2020-11-15T04:49:37Z
2020-11-15T02:51:44Z,42.805,6.029,13.2990,4.59987,2470.124,2020-11-15T04:52:40Z
2020-11-15T02:54:47Z,42.805,6.029,13.2987,4.59998,2470.077,2020-11-15T04:55:44Z
2020-11-15T02:57:50Z,42.805,6.029,13.2993,4.59997,2470.1,2020-11-15T04:58:47Z
2020-11-15T03:00:53Z,42.805,6.029,13.2994,4.59995,2470.1,2020-11-15T05:01:50Z
2020-11-15T03:03:56Z,42.805,6.029,13.2984,4.59990,2470.1,2020-11-15T05:04:53Z
2020-11-15T03:07:00Z,42.805,6.029,13.2993,4.59995,2470.087,2020-11-15T05:07:56Z
2020-11-15T03:10:03Z,42.805,6.029,13.2992,4.59991,2470.087,2020-11-15T05:10:59Z
2020-11-15T03:13:06Z,42.805,6.029,13.2994,4.59991,2470.11,2020-11-15T05:14:02Z
2020-11-15T03:16:09Z,42.805,6.029,13.2988,4.59995,2470.147,2020-11-15T05:17:05Z
2020-11-15T03:19:12Z,42.805,6.029,13.2989,4.59988,2470.11,2020-11-15T05:20:08Z
2020-11-15T03:22:15Z,42.805,6.029,13.2990,4.59993,2470.147,2020-11-15T05:23:12Z
2020-11-15T03:25:18Z,42.805,6.029,13.2994,4.59992,2470.087,2020-11-15T05:26:15Z
2020-11-15T03:28:21Z,42.805,6.029,13.2984,4.59991,2470.133,2020-11-15T05:29:18Z
2020-11-15T03:31:24Z,42.805,6.029,13.2993,4.59994,2470.087,2020-11-15T05:32:21Z
2020-11-15T03:34:28Z,42.805,6.029,13.2993,4.59996,2470.133,2020-11-15T05:35:24Z
2020-11-15T03:37:31Z,42.805,6.029,13.2993,4.59987,2470.124,2020-11-15T05:38:27Z
2020-11-15T03:40:34Z,42.805,6.029,13.2993,4.59996,2470.147,2020-11-15T05:41:30Z
2020-11-15T03:43:37Z,42.805,6.029,13.2993,4.59991,2470.171,2020-11-15T05:44:34Z
2020-11-15T03:46:40Z,42.805,6.029,13.2992,4.59994,2470.194,2020-11-15T05:47:37Z
2020-11-15T03:49:43Z,42.805,6.029,13.2990,4.59993,2470.147,2020-11-15T05:50:40Z
2020-11-15T03:52:46Z,42.805,6.029,13.2989,4.59988,2470.133,2020-11-15T05:53:43Z
2020-11-15T03:55:49Z,42.805,6.029,13.2991,4.59987,2470.147,2020-11-15T05:56:46Z
2020-11-15T03:58:53Z,42.805,6.029,13.2990,4.59996,2470.087,2020-11-15T05:59:49Z
2020-11-15T04:01:56Z,42.805,6.029,13.2991,4.59991,2470.18,2020-11-15T06:02:52Z
2020-11-15T04:04:59Z,42.805,6.029,13.2996,4.59989,2470.171,2020-11-15T06:05:55Z
2020-11-15T04:08:02Z,42.805,6.029,13.2993,4.59994,2470.156,2020-11-15T06:08:58Z
2020-11-15T04:11:05Z,42.805,6.029,13.2988,4.59994,2470.133,2020-11-15T06:12:02Z
2020-11-15T04:14:08Z,42.805,6.029,13.2992,4.59988,2470.171,2020-11-15T06:15:05Z
2020-11-15T04:17:11Z,42.805,6.029,13.2991,4.59993,2470.194,2020-11-15T06:18:08Z
2020-11-15T04:20:14Z,42.805,6.029,13.2991,4.59989,2470.217,2020-11-15T06:21:11Z
2020-11-15T04:23:18Z,42.805,6.029,13.2990,4.59991,2470.156,2020-11-15T06:24:14Z
2020-11-15T04:26:21Z,42.805,6.029,13.2990,4.59991,2470.227,2020-11-15T06:27:17Z
2020-11-15T04:29:24Z,42.805,6.029,13.2985,4.60001,2470.194,2020-11-15T06:30:20Z
2020-11-15T04:32:27Z,42.805,6.029,13.2988,4.59994,2470.203,2020-11-15T06:33:23Z
2020-11-15T04:35:30Z,42.805,6.029,13.2990,4.59994,2470.227,2020-11-15T06:36:27Z
2020-11-15T04:38:33Z,42.805,6.029,13.2996,4.59990,2470.227,2020-11-15T06:39:30Z
2020-11-15T04:41:36Z,42.805,6.029,13.2989,4.59993,2470.24,2020-11-15T06:42:33Z
2020-11-15T04:44:39Z,42.805,6.029,13.2990,4.59994,2470.227,2020-11-15T06:45:36Z
2020-11-15T04:47:43Z,42.805,6.029,13.2989,4.59991,2470.227,2020-11-15T06:48:39Z
2020-11-15T04:50:46Z,42.805,6.029,13.2983,4.59988,2470.227,2020-11-15T06:51:42Z
2020-11-15T04:53:49Z,42.805,6.029,13.2993,4.59996,2470.227,2020-11-15T06:54:45Z
2020-11-15T04:56:52Z,42.805,6.029,13.2986,4.59990,2470.25,2020-11-15T06:57:48Z
2020-11-15T04:59:55Z,42.805,6.029,13.2993,4.59994,2470.203,2020-11-15T07:00:52Z
2020-11-15T05:02:58Z,42.805,6.029,13.2986,4.59995,2470.25,2020-11-15T07:03:55Z
2020-11-15T05:06:01Z,42.805,6.029,13.2990,4.59990,2470.24,2020-11-15T07:06:58Z
2020-11-15T05:09:04Z,42.805,6.029,13.2992,4.60001,2470.24,2020-11-15T07:10:01Z
2020-11-15T05:12:08Z,42.805,6.029,13.2992,4.59993,2470.264,2020-11-15T07:13:04Z
2020-11-15T05:15:11Z,42.805,6.029,13.2992,4.59991,2470.25,2020-11-15T07:16:07Z
2020-11-15T05:18:14Z,42.805,6.029,13.2988,4.59994,2470.264,2020-11-15T07:19:10Z
2020-11-15T05:21:17Z,42.805,6.029,13.2991,4.59995,2470.25,2020-11-15T07:22:13Z
2020-11-15T05:24:20Z,42.805,6.029,13.2993,4.59997,2470.264,2020-11-15T07:25:17Z
2020-11-15T05:27:23Z,42.805,6.029,13.2988,4.59988,2470.287,2020-11-15T07:28:20Z
2020-11-15T05:30:26Z,42.805,6.029,13.2990,4.59994,2470.287,2020-11-15T07:31:23Z
2020-11-15T05:33:29Z,42.805,6.029,13.2990,4.59994,2470.273,2020-11-15T07:34:26Z
2020-11-15T05:36:33Z,42.805,6.029,13.2990,4.59990,2470.273,2020-11-15T07:37:29Z
2020-11-15T05:39:36Z,42.805,6.029,13.2986,4.59994,2470.287,2020-11-15T07:40:32Z
2020-11-15T05:42:39Z,42.805,6.029,13.2986,4.59995,2470.273,2020-11-15T07:43:35Z
2020-11-15T05:45:42Z,42.805,6.029,13.2988,4.59994,2470.287,2020-11-15T07:46:38Z
2020-11-15T05:48:45Z,42.805,6.029,13.2990,4.59990,2470.273,2020-11-15T07:49:41Z
2020-11-15T05:51:48Z,42.805,6.029,13.2990,4.59991,2470.273,2020-11-15T07:52:45Z
2020-11-15T05:54:51Z,42.805,6.029,13.2985,4.59989,2470.287,2020-11-15T07:55:48Z
2020-11-15T05:57:54Z,42.805,6.029,13.2987,4.59991,2470.31,2020-11-15T07:58:51Z
2020-11-15T06:00:57Z,42.805,6.029,13.2991,4.59986,2470.287,2020-11-15T08:01:54Z
2020-11-15T06:04:01Z,42.805,6.029,13.2990,4.59992,2470.297,2020-11-15T08:04:57Z
2020-11-15T06:07:04Z,42.805,6.029,13.2989,4.59996,2470.32,2020-11-15T08:08:00Z
2020-11-15T06:10:07Z,42.805,6.029,13.2993,4.59998,2470.297,2020-11-15T08:11:03Z
2020-11-15T06:13:10Z,42.805,6.029,13.2982,4.59989,2470.334,2020-11-15T08:14:06Z
2020-11-15T06:16:13Z,42.805,6.029,13.2991,4.59993,2470.287,2020-11-15T08:17:10Z
2020-11-15T06:19:16Z,42.805,6.029,13.2986,4.59986,2470.297,2020-11-15T08:20:13Z
2020-11-15T06:22:19Z,42.805,6.029,13.2987,4.59994,2470.297,2020-11-15T08:23:16Z
2020-11-15T06:25:22Z,42.805,6.029,13.2990,4.59991,2470.297,2020-11-15T08:26:19Z
2020-11-15T06:28:26Z,42.805,6.029,13.2992,4.59988,2470.297,2020-11-15T08:29:22Z
2020-11-15T06:31:29Z,42.805,6.029,13.2986,4.59992,2470.25,2020-11-15T08:32:25Z
2020-11-15T06:34:32Z,42.805,6.029,13.2990,4.59990,2470.297,2020-11-15T08:35:28Z
2020-11-15T06:37:35Z,42.805,6.029,13.2991,4.59986,2470.273,2020-11-15T08:38:31Z
2020-11-15T06:40:38Z,42.805,6.029,13.2992,4.59999,2470.334,2020-11-15T08:41:35Z
2020-11-15T06:43:41Z,42.805,6.029,13.2990,4.59992,2470.297,2020-11-15T08:44:38Z
2020-11-15T06:46:44Z,42.805,6.029,13.2989,4.59996,2470.31,2020-11-15T08:47:41Z
2020-11-15T06:49:47Z,42.805,6.029,13.2986,4.59991,2470.297,2020-11-15T08:50:44Z
2020-11-15T06:52:51Z,42.805,6.029,13.2981,4.59987,2470.31,2020-11-15T08:53:47Z
2020-11-15T06:55:54Z,42.805,6.029,13.2992,4.59993,2470.297,2020-11-15T08:56:50Z
2020-11-15T06:58:57Z,42.805,6.029,13.2990,4.59986,2470.297,2020-11-15T08:59:53Z
2020-11-15T07:02:00Z,42.805,6.029,13.2985,4.59986,2470.297,2020-11-15T09:02:56Z
2020-11-15T07:05:03Z,42.805,6.029,13.2987,4.59987,2470.31,2020-11-15T09:06:00Z
2020-11-15T07:08:06Z,42.805,6.029,13.2987,4.59988,2470.273,2020-11-15T09:09:03Z
2020-11-15T07:11:09Z,42.805,6.029,13.2992,4.59994,2470.31,2020-11-15T09:12:06Z
2020-11-15T07:14:12Z,42.805,6.029,13.2990,4.59993,2470.357,2020-11-15T09:15:09Z
2020-11-15T07:17:16Z,42.805,6.029,13.2990,4.59994,2470.32,2020-11-15T09:18:12Z
2020-11-15T07:20:19Z,42.805,6.029,13.2987,4.59986,2470.32,2020-11-15T09:21:15Z
2020-11-15T07:23:22Z,42.805,6.029,13.2987,4.59989,2470.334,2020-11-15T09:24:18Z
2020-11-15T07:26:25Z,42.805,6.029,13.2986,4.59988,2470.26,2020-11-15T09:27:21Z
2020-11-15T07:29:28Z,42.805,6.029,13.2985,4.59986,2470.31,2020-11-15T09:30:25Z
2020-11-15T07:32:31Z,42.805,6.029,13.2990,4.59985,2470.31,2020-11-15T09:33:28Z
2020-11-15T07:35:34Z,42.805,6.029,13.2983,4.59989,2470.297,2020-11-15T09:36:31Z
2020-11-15T07:38:37Z,42.805,6.029,13.2990,4.59988,2470.31,2020-11-15T09:39:34Z
2020-11-15T07:41:41Z,42.805,6.029,13.2990,4.59990,2470.273,2020-11-15T09:42:37Z
2020-11-15T07:44:44Z,42.805,6.029,13.2988,4.59986,2470.297,2020-11-15T09:45:40Z
2020-11-15T07:47:47Z,42.805,6.029,13.2988,4.59991,2470.297,2020-11-15T09:48:43Z
2020-11-15T07:50:50Z,42.805,6.029,13.2988,4.59989,2470.297,2020-11-15T09:51:46Z
2020-11-15T07:53:53Z,42.805,6.029,13.2982,4.59988,2470.31,2020-11-15T09:54:50Z
2020-11-15T07:56:56Z,42.805,6.029,13.2985,4.59986,2470.334,2020-11-15T09:57:53Z
2020-11-15T07:59:59Z,42.805,6.029,13.2981,4.59986,2470.287,2020-11-15T10:00:56Z
2020-11-15T08:03:02Z,42.805,6.029,13.2991,4.59988,2470.297,2020-11-15T10:03:59Z
2020-11-15T08:06:06Z,42.805,6.029,13.2982,4.59992,2470.31,2020-11-15T10:07:02Z
2020-11-15T08:09:09Z,42.805,6.029,13.2990,4.59986,2470.273,2020-11-15T10:10:05Z
2020-11-15T08:12:12Z,42.805,6.029,13.2986,4.59989,2470.273,2020-11-15T10:13:08Z
2020-11-15T08:15:15Z,42.805,6.029,13.2991,4.59986,2470.297,2020-11-15T10:16:11Z
2020-11-15T08:18:18Z,42.805,6.029,13.2986,4.59986,2470.334,2020-11-15T10:19:14Z
2020-11-15T08:21:21Z,42.805,6.029,13.2984,4.59986,2470.297,2020-11-15T10:22:18Z
2020-11-15T08:24:24Z,42.805,6.029,13.2993,4.59985,2470.297,2020-11-15T10:25:21Z
2020-11-15T08:27:27Z,42.805,6.029,13.2989,4.59989,2470.297,2020-11-15T10:28:24Z
2020-11-15T08:30:30Z,42.805,6.029,13.2983,4.59992,2470.31,2020-11-15T10:31:27Z
2020-11-15T08:33:34Z,42.805,6.029,13.2987,4.59985,2470.273,2020-11-15T10:34:30Z
2020-11-15T08:36:37Z,42.805,6.029,13.2991,4.59994,2470.287,2020-11-15T10:37:33Z
2020-11-15T08:39:40Z,42.805,6.029,13.2990,4.59989,2470.273,2020-11-15T10:40:36Z
2020-11-15T08:42:43Z,42.805,6.029,13.2986,4.59989,2470.287,2020-11-15T10:43:40Z
2020-11-15T08:45:46Z,42.805,6.029,13.2982,4.59988,2470.25,2020-11-15T10:46:43Z
2020-11-15T08:48:49Z,42.805,6.029,13.2985,4.59983,2470.297,2020-11-15T10:49:46Z
2020-11-15T08:51:52Z,42.805,6.029,13.2986,4.59991,2470.297,2020-11-15T10:52:49Z
2020-11-15T08:54:56Z,42.805,6.029,13.2990,4.59986,2470.31,2020-11-15T10:55:52Z
2020-11-15T08:57:59Z,42.805,6.029,13.2993,4.59991,2470.287,2020-11-15T10:58:55Z
2020-11-15T09:01:02Z,42.805,6.029,13.2986,4.59992,2470.287,2020-11-15T11:01:58Z
2020-11-15T09:04:05Z,42.805,6.029,13.2987,4.59993,2470.297,2020-11-15T11:05:01Z
2020-11-15T09:07:08Z,42.805,6.029,13.2987,4.59988,2470.297,2020-11-15T11:08:05Z
2020-11-15T09:10:11Z,42.805,6.029,13.2990,4.59986,2470.24,2020-11-15T11:11:08Z
2020-11-15T09:13:14Z,42.805,6.029,13.2990,4.59984,2470.287,2020-11-15T11:14:11Z
2020-11-15T09:16:17Z,42.805,6.029,13.2989,4.59986,2470.31,2020-11-15T11:17:14Z
2020-11-15T09:19:21Z,42.805,6.029,13.2990,4.59989,2470.273,2020-11-15T11:20:17Z
2020-11-15T09:22:24Z,42.805,6.029,13.2989,4.59991,2470.25,2020-11-15T11:23:20Z
2020-11-15T09:25:27Z,42.805,6.029,13.2986,4.59987,2470.264,2020-11-15T11:26:23Z
2020-11-15T09:28:30Z,42.805,6.029,13.2992,4.59988,2470.264,2020-11-15T11:29:26Z
2020-11-15T09:31:33Z,42.805,6.029,13.2986,4.59988,2470.273,2020-11-15T11:32:30Z
2020-11-15T09:34:36Z,42.805,6.029,13.2985,4.59987,2470.24,2020-11-15T11:35:33Z
2020-11-15T09:37:39Z,42.805,6.029,13.2987,4.59989,2470.25,2020-11-15T11:38:36Z
2020-11-15T09:40:42Z,42.805,6.029,13.2986,4.59992,2470.25,2020-11-15T11:41:39Z
2020-11-15T09:43:46Z,42.805,6.029,13.2987,4.59991,2470.273,2020-11-15T11:44:42Z
2020-11-15T09:46:49Z,42.805,6.029,13.2987,4.59986,2470.24,2020-11-15T11:47:45Z
2020-11-15T09:49:52Z,42.805,6.029,13.2993,4.59994,2470.25,2020-11-15T11:50:48Z
2020-11-15T09:52:55Z,42.805,6.029,13.2993,4.60011,2470.25,2020-11-15T11:53:51Z
2020-11-15T09:55:58Z,42.805,6.029,13.2991,4.59993,2470.203,2020-11-15T11:56:55Z
2020-11-15T09:59:01Z,42.805,6.029,13.2991,4.59991,2470.227,2020-11-15T11:59:58Z
2020-11-15T10:02:04Z,42.805,6.029,13.2996,4.59988,2470.227,2020-11-15T12:03:01Z
2020-11-15T10:05:07Z,42.805,6.029,13.2984,4.59991,2470.217,2020-11-15T12:06:04Z
2020-11-15T10:08:11Z,42.805,6.029,13.2987,4.59987,2470.264,2020-11-15T12:09:07Z
2020-11-15T10:11:14Z,42.805,6.029,13.2987,4.59991,2470.227,2020-11-15T12:12:10Z
2020-11-15T10:14:17Z,42.805,6.029,13.2985,4.59992,2470.203,2020-11-15T12:15:13Z
2020-11-15T10:17:20Z,42.805,6.029,13.2991,4.59986,2470.203,2020-11-15T12:18:16Z
2020-11-15T10:20:23Z,42.805,6.029,13.2983,4.59983,2470.227,2020-11-15T12:21:20Z
2020-11-15T10:23:26Z,42.805,6.029,13.2983,4.59991,2470.227,2020-11-15T12:24:23Z
2020-11-15T10:26:29Z,42.805,6.029,13.2983,4.59990,2470.227,2020-11-15T12:27:26Z
2020-11-15T10:29:32Z,42.805,6.029,13.2982,4.59988,2470.203,2020-11-15T12:30:29Z
2020-11-15T10:32:36Z,42.805,6.029,13.2989,4.59987,2470.227,2020-11-15T12:33:32Z
2020-11-15T10:35:39Z,42.805,6.029,13.2990,4.59991,2470.203,2020-11-15T12:36:35Z
2020-11-15T10:38:42Z,42.805,6.029,13.2990,4.59988,2470.18,2020-11-15T12:39:38Z
2020-11-15T10:41:45Z,42.805,6.029,13.2982,4.59983,2470.217,2020-11-15T12:42:41Z
2020-11-15T10:44:48Z,42.805,6.029,13.2986,4.59992,2470.156,2020-11-15T12:45:45Z
2020-11-15T10:47:51Z,42.805,6.029,13.2989,4.59990,2470.203,2020-11-15T12:48:48Z
2020-11-15T10:50:54Z,42.805,6.029,13.2986,4.59994,2470.217,2020-11-15T12:51:51Z
2020-11-15T10:53:57Z,42.805,6.029,13.2993,4.59986,2470.156,2020-11-15T12:54:54Z
2020-11-15T10:57:01Z,42.805,6.029,13.2992,4.59988,2470.203,2020-11-15T12:57:57Z
2020-11-15T11:00:04Z,42.805,6.029,13.2986,4.59991,2470.194,2020-11-15T13:01:00Z
2020-11-15T11:03:07Z,42.805,6.029,13.2986,4.59991,2470.171,2020-11-15T13:04:03Z
2020-11-15T11:06:10Z,42.805,6.029,13.2993,4.59987,2470.171,2020-11-15T13:07:06Z
2020-11-15T11:09:13Z,42.805,6.029,13.2989,4.59991,2470.18,2020-11-15T13:10:10Z
2020-11-15T11:12:16Z,42.805,6.029,13.2983,4.59986,2470.217,2020-11-15T13:13:13Z
2020-11-15T11:15:19Z,42.805,6.029,13.2986,4.59988,2470.171,2020-11-15T13:16:16Z
2020-11-15T11:18:22Z,42.805,6.029,13.2981,4.59990,2470.171,2020-11-15T13:19:19Z
2020-11-15T11:21:26Z,42.805,6.029,13.3001,4.59993,2470.156,2020-11-15T13:22:22Z
2020-11-15T11:24:29Z,42.805,6.029,13.2993,4.59991,2470.156,2020-11-15T13:25:25Z
2020-11-15T11:27:32Z,42.805,6.029,13.2986,4.59985,2470.133,2020-11-15T13:28:28Z
2020-11-15T11:30:35Z,42.805,6.029,13.2990,4.59990,2470.133,2020-11-15T13:31:31Z
2020-11-15T11:33:38Z,42.805,6.029,13.2984,4.59996,2470.11,2020-11-15T13:34:35Z
2020-11-15T11:36:41Z,42.805,6.029,13.2993,4.59986,2470.133,2020-11-15T13:37:38Z
2020-11-15T11:39:44Z,42.805,6.029,13.2986,4.59987,2470.18,2020-11-15T13:40:41Z
2020-11-15T11:42:47Z,42.805,6.029,13.2987,4.59985,2470.133,2020-11-15T13:43:44Z
2020-11-15T11:45:51Z,42.805,6.029,13.2984,4.59995,2470.11,2020-11-15T13:46:47Z
2020-11-15T11:48:54Z,42.805,6.029,13.2987,4.59991,2470.143,2020-11-15T13:49:50Z
2020-11-15T11:51:57Z,42.805,6.029,13.2991,4.59993,2470.124,2020-11-15T13:52:53Z
2020-11-15T11:55:00Z,42.805,6.029,13.2987,4.59986,2470.133,2020-11-15T13:55:57Z
2020-11-15T11:58:03Z,42.805,6.029,13.2980,4.59995,2470.11,2020-11-15T13:59:00Z
2020-11-15T12:01:06Z,42.805,6.029,13.2990,4.59991,2470.133,2020-11-15T14:02:03Z
2020-11-15T12:04:09Z,42.805,6.029,13.2988,4.59986,2470.133,2020-11-15T14:05:06Z
2020-11-15T12:07:13Z,42.805,6.029,13.2986,4.59991,2470.11,2020-11-15T14:08:09Z
2020-11-15T12:10:16Z,42.805,6.029,13.2993,4.59991,2470.087,2020-11-15T14:11:12Z
2020-11-15T12:13:19Z,42.805,6.029,13.2983,4.59984,2470.124,2020-11-15T14:14:15Z
2020-11-15T12:16:22Z,42.805,6.029,13.2982,4.59988,2470.124,2020-11-15T14:17:18Z
2020-11-15T12:19:25Z,42.805,6.029,13.2985,4.59991,2470.18,2020-11-15T14:20:22Z
2020-11-15T12:22:28Z,42.805,6.029,13.2986,4.59983,2470.1,2020-11-15T14:23:25Z
2020-11-15T12:25:31Z,42.805,6.029,13.2992,4.59986,2470.11,2020-11-15T14:26:28Z
2020-11-15T12:28:34Z,42.805,6.029,13.2993,4.59989,2470.087,2020-11-15T14:29:31Z
2020-11-15T12:31:38Z,42.805,6.029,13.2983,4.59981,2470.133,2020-11-15T14:32:34Z
2020-11-15T12:34:41Z,42.805,6.029,13.2985,4.59983,2470.11,2020-11-15T14:35:37Z
2020-11-15T12:37:44Z,42.805,6.029,13.2976,4.59984,2470.1,2020-11-15T14:38:40Z
2020-11-15T12:40:47Z,42.805,6.029,13.2990,4.59991,2470.11,2020-11-15T14:41:43Z
2020-11-15T12:43:50Z,42.805,6.029,13.2985,4.59991,2470.124,2020-11-15T14:44:47Z
2020-11-15T12:46:53Z,42.805,6.029,13.2979,4.59991,2470.11,2020-11-15T14:47:50Z
2020-11-15T12:49:56Z,42.805,6.029,13.2988,4.59992,2470.11,2020-11-15T14:50:53Z
2020-11-15T12:52:59Z,42.805,6.029,13.2995,4.59995,2470.11,2020-11-15T14:53:56Z
2020-11-15T12:56:03Z,42.805,6.029,13.2985,4.59989,2470.11,2020-11-15T14:56:59Z
2020-11-15T12:59:06Z,42.805,6.029,13.2985,4.59991,2470.087,2020-11-15T15:00:02Z
2020-11-15T13:02:09Z,42.805,6.029,13.2993,4.59986,2470.063,2020-11-15T15:03:05Z
2020-11-15T13:05:12Z,42.805,6.029,13.2987,4.59990,2470.087,2020-11-15T15:06:09Z
2020-11-15T13:08:15Z,42.805,6.029,13.2990,4.59981,2470.11,2020-11-15T15:09:12Z
2020-11-15T13:11:18Z,42.805,6.029,13.2998,4.59999,2470.063,2020-11-15T15:12:15Z
2020-11-15T13:14:21Z,42.805,6.029,13.2979,4.59982,2470.1,2020-11-15T15:15:18Z
2020-11-15T13:17:24Z,42.805,6.029,13.2986,4.59987,2470.063,2020-11-15T15:18:21Z
2020-11-15T13:20:28Z,42.805,6.029,13.2986,4.59983,2470.087,2020-11-15T15:21:24Z
2020-11-15T13:23:31Z,42.805,6.029,13.2982,4.59996,2470.133,2020-11-15T15:24:27Z
2020-11-15T13:26:34Z,42.805,6.029,13.2991,4.59990,2470.1,2020-11-15T15:27:30Z
2020-11-15T13:29:37Z,42.805,6.029,13.2986,4.59996,2470.077,2020-11-15T15:30:34Z
2020-11-15T13:32:40Z,42.805,6.029,13.2983,4.59995,2470.087,2020-11-15T15:33:37Z
2020-11-15T13:35:43Z,42.805,6.029,13.2989,4.59999,2470.087,2020-11-15T15:36:40Z
2020-11-15T13:38:46Z,42.805,6.029,13.2979,4.59990,2470.063,2020-11-15T15:39:43Z
2020-11-15T13:41:49Z,42.805,6.029,13.2984,4.59984,2470.063,2020-11-15T15:42:46Z
2020-11-15T13:44:53Z,42.805,6.029,13.2982,4.59984,2470.063,2020-11-15T15:45:49Z
2020-11-15T13:47:56Z,42.805,6.029,13.2991,4.59984,2470.063,2020-11-15T15:48:52Z
2020-11-15T13:50:59Z,42.805,6.029,13.2998,4.59987,2470.077,2020-11-15T15:51:55Z
2020-11-15T13:54:02Z,42.805,6.029,13.2983,4.59986,2470.087,2020-11-15T15:54:59Z
2020-11-15T13:57:05Z,42.805,6.029,13.2991,4.59996,2470.1,2020-11-15T15:58:02Z
2020-11-15T14:00:08Z,42.805,6.029,13.2994,4.59994,2470.1,2020-11-15T16:01:05Z
2020-11-15T14:03:11Z,42.805,6.029,13.2989,4.59985,2470.087,2020-11-15T16:04:08Z
2020-11-15T14:06:15Z,42.805,6.029,13.2982,4.59989,2470.077,2020-11-15T16:07:11Z
2020-11-15T14:09:18Z,42.805,6.029,13.2988,4.59989,2470.087,2020-11-15T16:10:14Z
2020-11-15T14:12:21Z,42.805,6.029,13.2996,4.59991,2470.087,2020-11-15T16:13:17Z
2020-11-15T14:15:24Z,42.805,6.029,13.2986,4.59987,2470.087,2020-11-15T16:16:20Z
2020-11-15T14:18:27Z,42.805,6.029,13.2992,4.59990,2470.11,2020-11-15T16:19:24Z
2020-11-15T14:21:30Z,42.805,6.029,13.2985,4.59987,2470.147,2020-11-15T16:22:27Z
2020-11-15T14:24:33Z,42.805,6.029,13.2983,4.59987,2470.087,2020-11-15T16:25:30Z
2020-11-15T14:27:36Z,42.805,6.029,13.2982,4.59983,2470.087,2020-11-15T16:28:33Z
2020-11-15T14:30:40Z,42.805,6.029,13.2980,4.59984,2470.11,2020-11-15T16:31:36Z
2020-11-15T14:33:43Z,42.805,6.029,13.2991,4.59983,2470.087,2020-11-15T16:34:39Z
2020-11-15T14:36:46Z,42.805,6.029,13.2984,4.59985,2470.1,2020-11-15T16:37:42Z
2020-11-15T14:39:49Z,42.805,6.029,13.2983,4.59992,2470.1,2020-11-15T16:40:45Z
2020-11-15T14:42:52Z,42.805,6.029,13.2988,4.59993,2470.087,2020-11-15T16:43:49Z
2020-11-15T14:45:55Z,42.805,6.029,13.2987,4.59988,2470.087,2020-11-15T16:46:52Z
2020-11-15T14:48:58Z,42.805,6.029,13.2982,4.59997,2470.1,2020-11-15T16:49:55Z
2020-11-15T14:52:01Z,42.805,6.029,13.2990,4.59999,2470.11,2020-11-15T16:52:58Z
2020-11-15T14:55:05Z,42.805,6.029,13.2987,4.59989,2470.11,2020-11-15T16:56:01Z
2020-11-15T14:58:08Z,42.805,6.029,13.2989,4.59987,2470.11,2020-11-15T16:59:04Z
2020-11-15T15:01:11Z,42.805,6.029,13.2985,4.59990,2470.124,2020-11-15T17:02:07Z